SCP
0 0 0 0 0 0 0 0 -0 0 0 0 0 0 0 0 -0 -0 -0 -0 -0 -0 -0 -0 -0 -0 -0 -0 -0 -0 -0 -0
0 0 0 0 0 0 0 0 -0 -0 0 -0 -0 -0 -0 -0 -0 -0 -0 -0 -0 -0 -0 -0 -0 -0 -0 -0 -0 -0 -0 -0
0 0 0 0 0 0 0 0 0 0 0 0 -0 -0 -0 -0 -0 -0 -0 0 0 -0 -0 -0 -0 -0 -0 -0 -0 -0 -0 -0
0 0 0 0 0 0 0 0 0 0 0 0 1 0 0 0 -0 0 -0 0 0 0 -0 -0 -0 -0 -0 -0 -0 -0 -0 -0
0 0 0 0 0 0 0 0 0 0 0 0 0 0 0 0 0 0 0 0 0 0 0 -0 -0 -0 -0 -0 -0 -0 -0 0
0 0 0 0 0 0 0 0 0 1 0 0 0 0 0 0 0 0 0 0 0 0 0 0 0 0 0 0 0 0 0 0
0 0 0 0 0 0 0 0 0 0 0 0 0 0 0 0 0 0 0 0 0 0 0 0 0 0 0 0 0 0 0 0
0 0 0 0 0 0 0 0 1 1 1 0 0 0 0 0 0 0 0 0 0 0 0 0 0 0 0 0 0 0 0 0
0 0 0 0 0 0 0 0 0 0 0 0 0 0 0 0 0 0 0 0 0 0 0 0 0 0 0 0 0 0 0 0
0 0 0 0 0 0 0 0 0 1 0 0 1 0 0 0 0 0 0 0 0 0 0 0 0 0 0 0 0 0 0 0
0 0 0 0 0 0 0 0 0 0 1 0 0 0 0 0 0 0 0 0 0 0 0 0 0 0 0 0 0 0 0 0
0 0 0 0 0 0 0 0 0 0 0 0 0 0 0 0 0 0 0 0 0 0 0 0 0 0 0 0 0 0 0 0
0 0 0 0 0 0 0 0 0 0 0 0 0 0 0 0 0 0 0 0 0 0 0 0 0 0 0 0 0 0 0 0
0 0 0 0 0 0 0 0 0 0 0 0 0 0 0 0 0 0 0 0 0 0 0 0 0 0 0 0 0 0 0 0
0 0 0 0 0 0 0 0 0 0 0 0 0 0 0 0 0 0 0 0 0 0 0 0 0 0 0 0 0 0 0 0
0 0 0 0 0 0 0 0 0 0 0 0 0 0 0 0 0 0 0 -0 0 0 0 0 0 0 1 1 1 0 0 0
0 0 0 0 0 0 0 0 0 0 0 0 0 0 0 0 0 0 0 0 0 0 0 0 0 0 0 1 -0 1 0 0
0 0 0 0 0 0 0 0 0 0 0 0 0 0 0 0 0 0 0 0 0 0 0 0 0 -0 -0 -0 -0 -0 -0 0
0 0 0 0 0 0 0 0 0 0 0 0 0 0 0 0 0 0 0 0 0 0 0 0 0 0 0 -0 -0 -0 0 0
0 0 0 0 0 0 0 0 0 0 0 0 0 0 0 0 0 0 0 0 0 0 0 0 0 0 0 0 0 0 0 0
Wind_Speed_500mb
8 6 10 8 7 1 19 34 18 5 3 8 9 8 11 16 45 65 61 58 53 46 41 35 30 25 22 22 24 29 30 32
9 11 13 11 9 6 9 12 14 7 2 9 13 6 6 29 43 60 59 56 51 45 39 35 31 26 23 21 22 25 28 30
7 10 12 4 8 12 9 9 10 13 5 6 20 11 16 24 40 58 59 57 51 44 39 34 31 29 26 21 19 20 23 26
10 8 10 9 8 5 6 13 6 20 17 7 7 11 23 36 39 60 58 55 50 44 37 33 31 29 25 22 18 16 16 18
8 11 5 8 2 8 10 6 6 10 9 6 8 18 20 45 45 62 58 55 49 43 37 33 31 29 26 22 19 16 15 16
8 10 10 5 13 12 10 0 8 10 11 11 23 29 37 48 53 56 52 49 47 42 37 34 31 29 29 26 24 20 18 16
12 12 7 3 5 6 5 9 13 8 13 34 30 37 44 49 53 53 51 48 45 41 37 32 30 32 34 32 28 24 23 19
9 7 4 5 1 2 6 15 16 39 39 42 44 46 46 49 52 53 52 48 42 37 34 32 33 34 34 33 31 29 26 22
8 9 3 9 7 2 10 2 18 44 61 53 48 47 39 42 42 46 45 44 40 38 35 33 34 33 33 33 31 29 27 24
9 3 7 7 11 4 1 6 24 47 64 60 48 41 43 43 45 45 49 43 41 39 36 35 34 33 31 30 29 29 26 26
12 2 9 6 6 5 11 16 38 43 49 55 50 44 40 38 40 38 38 35 35 41 40 35 33 33 32 31 29 25 26 26
5 4 1 4 4 4 13 20 40 47 45 43 39 34 36 40 37 32 29 32 27 42 43 41 32 34 35 33 28 31 29 25
10 9 8 13 5 10 29 24 27 27 34 34 28 26 20 19 32 32 31 24 17 27 44 39 36 34 35 33 32 28 21 22
10 19 9 11 4 11 30 31 31 24 17 19 27 13 18 25 33 41 43 40 34 26 38 42 42 40 43 43 40 29 26 23
2 22 8 8 9 15 30 28 28 31 27 23 16 12 12 16 21 36 34 35 35 39 43 40 39 39 44 46 37 26 25 32
15 12 7 9 8 7 41 34 27 27 30 27 20 14 18 14 15 26 33 34 36 42 38 46 53 48 44 34 23 25 33 39
8 3 9 12 9 11 29 21 21 26 16 16 16 15 20 24 25 33 37 39 39 36 34 43 50 51 51 55 26 33 38 40
3 10 7 11 11 15 16 21 38 33 28 23 23 23 24 29 36 43 45 40 36 31 33 35 41 43 52 53 56 61 50 55
9 7 5 12 7 9 11 11 23 28 32 25 31 29 30 35 38 44 44 40 37 29 24 25 27 29 31 36 45 51 55 47
15 10 9 7 8 10 11 16 12 29 34 31 35 35 37 42 40 40 35 31 31 29 29 27 21 20 24 26 31 31 30 31
Wind_Direction_500mb
108 127 187 179 230 238 307 313 276 293 188 116 103 58 132 165 165 170 168 165 164 165 165 170 170 159 150 141 143 150 152 154
109 208 258 183 160 317 299 311 225 262 271 88 88 80 149 161 170 173 171 167 167 166 169 175 175 173 166 154 146 154 159 163
144 215 270 204 278 302 326 273 269 189 300 39 39 88 138 167 175 177 174 172 169 169 172 176 182 183 179 170 158 157 163 170
198 213 253 298 254 301 288 311 351 155 123 28 47 158 160 172 179 176 176 173 172 172 176 180 186 188 187 185 179 170 166 174
205 190 239 242 146 160 271 267 127 125 81 139 180 170 165 168 178 175 178 174 174 177 183 185 188 190 194 196 198 195 188 184
227 177 204 229 325 210 234 79 101 110 143 177 178 167 165 168 169 175 177 177 179 181 187 190 192 192 196 204 207 210 215 209
188 155 204 59 66 188 62 102 66 90 153 156 148 149 152 161 170 175 177 181 183 188 193 193 196 199 200 205 208 214 224 228
200 194 138 48 174 264 121 109 90 97 126 142 145 147 152 165 171 176 179 181 186 192 196 197 203 206 207 210 213 218 225 231
247 219 347 47 9 45 102 120 185 158 148 152 154 156 155 169 175 179 182 185 190 194 196 202 206 209 212 216 220 226 232 237
231 64 11 69 333 17 90 92 152 157 150 153 160 161 157 160 168 179 188 188 195 200 204 208 209 211 210 217 224 231 236 241
205 235 357 45 323 171 96 113 147 151 152 156 163 165 168 174 180 187 189 191 203 208 209 210 217 218 219 216 218 226 230 237
207 189 253 48 318 121 177 117 149 157 152 152 157 167 177 186 194 196 198 201 208 217 216 218 219 224 224 223 216 221 229 242
206 224 223 153 153 229 174 155 133 141 164 176 183 181 192 210 212 208 205 201 218 235 224 225 229 229 231 232 227 231 234 236
208 148 228 131 214 239 190 161 143 137 148 167 168 176 223 221 223 221 220 225 240 236 226 226 224 228 227 220 231 243 265 274
134 178 134 155 210 214 199 202 158 157 174 189 208 194 219 238 223 208 219 229 232 235 233 228 224 226 232 237 246 257 283 277
180 185 96 137 204 136 187 195 178 162 167 184 208 222 215 210 218 198 201 201 223 231 232 242 231 245 249 250 268 263 285 294
159 170 123 180 195 185 195 201 204 166 188 194 211 207 213 212 198 201 201 210 223 235 239 251 261 248 254 257 281 297 312 311
58 189 153 138 214 248 166 194 192 203 193 202 201 209 215 218 210 203 205 211 220 235 236 254 252 259 254 267 281 295 293 295
139 144 61 117 307 248 261 215 192 206 216 207 201 213 218 215 209 207 205 210 222 228 241 244 246 256 267 275 285 294 288 282
129 108 194 160 251 244 242 257 227 225 221 217 200 202 214 210 213 207 208 219 229 230 233 245 266 269 274 281 298 309 308 298
Wind_Speed_850mb
8 6 10 8 7 1 19 34 18 5 3 8 9 8 11 16 45 65 61 58 53 46 41 35 30 25 22 22 24 29 30 32
9 11 13 11 9 6 9 12 14 7 2 9 13 6 6 29 43 60 59 56 51 45 39 35 31 26 23 21 22 25 28 30
7 10 12 4 8 12 9 9 10 13 5 6 20 11 16 24 40 58 59 57 51 44 39 34 31 29 26 21 19 20 23 26
10 8 10 9 8 5 6 13 6 20 17 7 7 11 23 36 39 60 58 55 50 44 37 33 31 29 25 22 18 16 16 18
8 11 5 8 2 8 10 6 6 10 9 6 8 18 20 45 45 62 58 55 49 43 37 33 31 29 26 22 19 16 15 16
8 10 10 5 13 12 10 0 8 10 11 11 23 29 37 48 53 56 52 49 47 42 37 34 31 29 29 26 24 20 18 16
12 12 7 3 5 6 5 9 13 8 13 34 30 37 44 49 53 53 51 48 45 41 37 32 30 32 34 32 28 24 23 19
9 7 4 5 1 2 6 15 16 39 39 42 44 46 46 49 52 53 52 48 42 37 34 32 33 34 34 33 31 29 26 22
8 9 3 9 7 2 10 2 18 44 61 53 48 47 39 42 42 46 45 44 40 38 35 33 34 33 33 33 31 29 27 24
9 3 7 7 11 4 1 6 24 47 64 60 48 41 43 43 45 45 49 43 41 39 36 35 34 33 31 30 29 29 26 26
12 2 9 6 6 5 11 16 38 43 49 55 50 44 40 38 40 38 38 35 35 41 40 35 33 33 32 31 29 25 26 26
5 4 1 4 4 4 13 20 40 47 45 43 39 34 36 40 37 32 29 32 27 42 43 41 32 34 35 33 28 31 29 25
10 9 8 13 5 10 29 24 27 27 34 34 28 26 20 19 32 32 31 24 17 27 44 39 36 34 35 33 32 28 21 22
10 19 9 11 4 11 30 31 31 24 17 19 27 13 18 25 33 41 43 40 34 26 38 42 42 40 43 43 40 29 26 23
2 22 8 8 9 15 30 28 28 31 27 23 16 12 12 16 21 36 34 35 35 39 43 40 39 39 44 46 37 26 25 32
15 12 7 9 8 7 41 34 27 27 30 27 20 14 18 14 15 26 33 34 36 42 38 46 53 48 44 34 23 25 33 39
8 3 9 12 9 11 29 21 21 26 16 16 16 15 20 24 25 33 37 39 39 36 34 43 50 51 51 55 26 33 38 40
3 10 7 11 11 15 16 21 38 33 28 23 23 23 24 29 36 43 45 40 36 31 33 35 41 43 52 53 56 61 50 55
9 7 5 12 7 9 11 11 23 28 32 25 31 29 30 35 38 44 44 40 37 29 24 25 27 29 31 36 45 51 55 47
15 10 9 7 8 10 11 16 12 29 34 31 35 35 37 42 40 40 35 31 31 29 29 27 21 20 24 26 31 31 30 31
Wind_Direction_850mb
108 127 187 179 230 238 307 313 276 293 188 116 103 58 132 165 165 170 168 165 164 165 165 170 170 159 150 141 143 150 152 154
109 208 258 183 160 317 299 311 225 262 271 88 88 80 149 161 170 173 171 167 167 166 169 175 175 173 166 154 146 154 159 163
144 215 270 204 278 302 326 273 269 189 300 39 39 88 138 167 175 177 174 172 169 169 172 176 182 183 179 170 158 157 163 170
198 213 253 298 254 301 288 311 351 155 123 28 47 158 160 172 179 176 176 173 172 172 176 180 186 188 187 185 179 170 166 174
205 190 239 242 146 160 271 267 127 125 81 139 180 170 165 168 178 175 178 174 174 177 183 185 188 190 194 196 198 195 188 184
227 177 204 229 325 210 234 79 101 110 143 177 178 167 165 168 169 175 177 177 179 181 187 190 192 192 196 204 207 210 215 209
188 155 204 59 66 188 62 102 66 90 153 156 148 149 152 161 170 175 177 181 183 188 193 193 196 199 200 205 208 214 224 228
200 194 138 48 174 264 121 109 90 97 126 142 145 147 152 165 171 176 179 181 186 192 196 197 203 206 207 210 213 218 225 231
247 219 347 47 9 45 102 120 185 158 148 152 154 156 155 169 175 179 182 185 190 194 196 202 206 209 212 216 220 226 232 237
231 64 11 69 333 17 90 92 152 157 150 153 160 161 157 160 168 179 188 188 195 200 204 208 209 211 210 217 224 231 236 241
205 235 357 45 323 171 96 113 147 151 152 156 163 165 168 174 180 187 189 191 203 208 209 210 217 218 219 216 218 226 230 237
207 189 253 48 318 121 177 117 149 157 152 152 157 167 177 186 194 196 198 201 208 217 216 218 219 224 224 223 216 221 229 242
206 224 223 153 153 229 174 155 133 141 164 176 183 181 192 210 212 208 205 201 218 235 224 225 229 229 231 232 227 231 234 236
208 148 228 131 214 239 190 161 143 137 148 167 168 176 223 221 223 221 220 225 240 236 226 226 224 228 227 220 231 243 265 274
134 178 134 155 210 214 199 202 158 157 174 189 208 194 219 238 223 208 219 229 232 235 233 228 224 226 232 237 246 257 283 277
180 185 96 137 204 136 187 195 178 162 167 184 208 222 215 210 218 198 201 201 223 231 232 242 231 245 249 250 268 263 285 294
159 170 123 180 195 185 195 201 204 166 188 194 211 207 213 212 198 201 201 210 223 235 239 251 261 248 254 257 281 297 312 311
58 189 153 138 214 248 166 194 192 203 193 202 201 209 215 218 210 203 205 211 220 235 236 254 252 259 254 267 281 295 293 295
139 144 61 117 307 248 261 215 192 206 216 207 201 213 218 215 209 207 205 210 222 228 241 244 246 256 267 275 285 294 288 282
129 108 194 160 251 244 242 257 227 225 221 217 200 202 214 210 213 207 208 219 229 230 233 245 266 269 274 281 298 309 308 298